Weather in Pervomayevka

Russia / Republic of Buryatia     52°01′56″N   108°24′01″E
temp.,
°C
wind,
m/s
gust,
m/s
humid.,
%
clouds,
%
prec.,
mm/h
press.,
hPa
HPBL,
m
9 may, sun
sun923:00+3w22644 0.0 101216
02:00+1sw11785 0.0 101213
05:00+1sw228896 0.0 101317
08:00+6wsw3567100 0.0 1012483
11:00+10wsw5653100 0.0 10101436
14:00+13wnw684596 0.4 10082009
17:00+14nw4638100 0.0 10072017
20:00+9ene3362100 0.0 100755
10 may, mon
mon1023:00+6nne2276100 0.0 100830
02:00+6s0177100 0.1 100827
05:00+4wnw1494100 2.5 1009440
08:00+5w3489100 2.6 1010533
11:00+5w3586100 0.1 1011588
14:00+11nnw344397 0.2 10091909
17:00+11nnw5543100 0.1 10091723
20:00+6nnw2459100 0.1 1011102
11 may, tue
tue1123:00+4wnw2369100 0.0 101373
02:00+2w2287100 0.0 101331
05:00+2wsw3691100 0.0 1013289
08:00+4wsw2484100 1.0 1013475
11:00+8wnw466373 0.1 10131014
14:00+11nw574531 0.1 10111765
17:00+12nnw68366 0.0 10112064
20:00+8wnw22550 0.0 101328
12 may, wed
wed1223:00+4wsw23870 0.0 101551
02:00+2wsw22910 0.0 101528
05:00+1sw22930 0.0 101518
08:00+7sw23660 0.0 1014408
11:00+13wsw453979 0.0 10102119
14:00+15w582799 0.1 10073077
17:00+16wnw682375 0.0 10063147
20:00+11nnw474910 0.0 1008213
13 may, thu
thu1323:00+5nw227873 0.0 101122
02:00+4nnw2480100 0.0 1013164
05:00+3wnw2382100 0.0 101469
08:00+6nw58385 0.0 10161636
11:00+8nw68295 0.0 10162008
14:00+10nnw682621 0.0 10152425
17:00+10nnw792470 0.0 10162713
20:00+6nw22360 0.0 101724